INMARSAT 5-F2

Last updated on Thu Nov 21 2024 00:02:42 GMT+0000 (Coordinated Universal Time)

1 40384U 15005A 24325.28394059 -.00000284 00000+0 00000+0 0 9999 2 40384 0.0200 35.9254 0000517 180.8715 250.2020 1.00267830 35235
UTC large
Height (km)
Speed (km/s)
/
Latitude / Longitude
Inclination (degrees)
Orbital Period (minutes)
Azimuth
Elevation
Range (km)
Doppler Factor

Next 0 passes for location: London (51.5072 / 0.1276)

Sorry there are no passes over London.